Hourly Data Report for September 27, 2003

TORONTO CITY
ONTARIO

43°40'00.000" N
79°24'00.000" W
112.50 m
6158355
71508
XTO

Download Data

Hourly Data (September 2003)
Hourly Data Report for September 27, 2003
TIME
LST
Temp Definition
°C
Dew Point Definition
°C
Rel Hum Definition
%
Precip. Amount Definition
mm

Wind Dir Definition
10's deg

Wind Spd Definition
km/h
Visibility Definition
km
Stn Press Definition
kPa
Hmdx Definition


Wind Chill Definition


Weather Definition


00:00 17.2 14.4 84   LegendMM LegendMM LegendMM 99.14     LegendNANA
01:00 17.8 17.0 95   LegendMM LegendMM LegendMM 99.06     LegendNANA
02:00 17.5 16.8 96   LegendMM LegendMM LegendMM 98.91     LegendNANA
03:00 17.4 16.8 96   LegendMM LegendMM LegendMM 98.73     LegendNANA
04:00 17.2 16.8 97   LegendMM LegendMM LegendMM 98.75     LegendNANA
05:00 17.5 17.1 98   LegendMM LegendMM LegendMM 98.80     LegendNANA
06:00 16.4 15.9 97   LegendMM LegendMM LegendMM 98.86     LegendNANA
07:00 16.6 16.2 97   LegendMM LegendMM LegendMM 98.91     LegendNANA
08:00 17.1 16.7 97   LegendMM LegendMM LegendMM 98.85     LegendNANA
09:00 17.5 16.9 96   LegendMM LegendMM LegendMM 98.91     LegendNANA
10:00 16.8 16.1 96   LegendMM LegendMM LegendMM 99.00     LegendNANA
11:00 16.8 16.1 96   LegendMM LegendMM LegendMM 99.06     LegendNANA
12:00 16.0 15.1 94   LegendMM LegendMM LegendMM 99.13     LegendNANA
13:00 16.2 15.1 93   LegendMM LegendMM LegendMM 99.16     LegendNANA
14:00 17.0 14.5 85   LegendMM LegendMM LegendMM 99.16     LegendNANA
15:00 16.8 13.1 79   LegendMM LegendMM LegendMM 99.20     LegendNANA
16:00 17.5 13.0 75   LegendMM LegendMM LegendMM 99.21     LegendNANA
17:00 17.4 11.7 69   LegendMM LegendMM LegendMM 99.20     LegendNANA
18:00 16.5 10.9 69   LegendMM LegendMM LegendMM 99.20     LegendNANA
19:00 16.3 10.8 70   LegendMM LegendMM LegendMM 99.27     LegendNANA
20:00 15.7 11.0 74   LegendMM LegendMM LegendMM 99.36     LegendNANA
21:00 15.4 10.7 74   LegendMM LegendMM LegendMM 99.41     LegendNANA
22:00 15.0 10.8 76   LegendMM LegendMM LegendMM 99.44     LegendNANA
23:00 14.1 10.3 78   LegendMM LegendMM LegendMM 99.40     LegendNANA

Notes on Data Quality.

Legend

  • E = Estimated
  • M = Missing
  • NA = Not Available*
  • [empty] = Indicates an unobserved value
Date modified: